Epoch = 1993 Aug. 1.0 TT
T = 1993 Aug. 17.2819 TT Peri. = 295.9191
e = 0.308106 Node = 116.0169 2000.0
q = 4.082327 AU Incl. = 19.8756
a = 5.900222 AU n = 0.0687704 P = 14.33 years
軌道要素は Dr. Brian G. Marsden の計算によるもので、
IAUC 8764
に掲載されたものです。
星図は StellaNavigator Ver.2.0 for Windows
(アストロアーツ
編著 / アスキー出版局刊) で作成したものです。
光度グラフはComet for
Windowsで作成したものです。
Copyright(C) Seiichi Yoshida (comet@aerith.net). All rights reserved.